轨道通信卫星FM11星 (ORBCOMM FM11)

导读 | 星芒AI

ORBCOMM FM11 是一颗由 ORBCOMM 公司运营的低轨通信卫星,属于其第二代卫星通信系统的一部分。该卫星主要用于提供全球范围内的物联网(IoT)数据传输服务,支持远程监控、物流跟踪和资产管理等应用。FM11 运行在 L 波段,具备低功耗、广覆盖的特点,适用于移动和固定终端设备。该卫星系统广泛应用于运输、能源和环境监测等领域,为用户提供可靠、高效的卫星通信解决方案。

基本信息
目录编号:
25114
目录名称:
ORBCOMM FM 11
国际标识:
1997-084C
轨道中心:
EARTH
卫星名称:
轨道通信卫星FM11星
卫星全名:
轨道通信卫星FM11星 (ORBCOMM FM11)
卫星状态:
在轨 (已飞行10219 天)
发射日期:
1997-12-23 UTC
国别 :
(ORB)
星等 :
--
轨道信息
数据来源 国际轨道数据 AOE轨道数据
星历时间 2025-12-15T01:43:04+0800
1天前
查看轨道信息
2025-12-10T15:00:00+0800
5天前
查看轨道信息
半长轴 7116.582km 7116.621km
偏心率 0.0006148 0.0006403
轨道倾角 45.012° 45.011°
近地点辐角 47.054° 21.562°
升交点赤经 224.364° 245.721°
平近点角 313.083° 207.577°
近地点 734.071km 733.929km
远地点 742.823km 743.043km
周期 99.579分钟 99.580分钟
每日圈数 14.46091 14.460792
详细信息
固有亮度:
8
最大亮度:
6.9
平衡模式:
三轴稳定
覆盖范围:
全球
运营商:
轨道通信公司
运营商所在国:
美国
制造商(研发单位):
轨道ATK公司
制造商所在国:
美国
使用方式:
暂无
卫星简介
轨道通信FM(Orbcomm FM)是一系列低地球轨道通信卫星,由美国卫星通信公司 Orbcomm运营。 截至2015年12月,已有63颗此类卫星绕地球运行。该卫星仍在工作。
2D轨道图
3D轨道图
轨道高度分析图
轨道倾角分析图
轨道综合分析图
查看轨道综合分析图